Stündliche Wetter Otrebusy

Heute, 14 April, Mittwoch

Zeit Temperatur Niederschläge Wind Luftdruck Luftfeuchtigkeit
00:00 +2°C° 0 mm 3 m/S 758 mmHg 79%
01:00 +2°C° 0 mm 3 m/S 757 mmHg 76%
02:00 +2°C° 0.2 mm 3 m/S 757 mmHg 79%
03:00 0°C° 0.2 mm 4 m/S 757 mmHg 82%
04:00 0°C° 0.2 mm 4 m/S 757 mmHg 86%
05:00 0°C° 0.3 mm 4 m/S 757 mmHg 86%
06:00 0°C° 0.3 mm 4 m/S 757 mmHg 87%
07:00 0°C° 0 mm 4 m/S 757 mmHg 87%
08:00 0°C° 0.3 mm 5 m/S 757 mmHg 85%
09:00 +1°C° 0.3 mm 5 m/S 757 mmHg 83%
10:00 +1°C° 0.3 mm 5 m/S 757 mmHg 80%
11:00 +2°C° 0.3 mm 5 m/S 757 mmHg 82%
12:00 +2°C° 0.3 mm 5 m/S 757 mmHg 84%
13:00 +2°C° 0.3 mm 5 m/S 757 mmHg 85%
14:00 +2°C° 0.4 mm 5 m/S 756 mmHg 88%
15:00 +2°C° 0.4 mm 5 m/S 756 mmHg 91%
16:00 +3°C° 0.4 mm 4 m/S 756 mmHg 94%
17:00 +1°C° 0.4 mm 4 m/S 756 mmHg 95%
18:00 +1°C° 0.4 mm 4 m/S 756 mmHg 96%
19:00 +1°C° 0.4 mm 4 m/S 756 mmHg 97%
20:00 +1°C° 0.5 mm 5 m/S 756 mmHg 97%
21:00 +1°C° 0.5 mm 5 m/S 756 mmHg 97%
22:00 +1°C° 0.5 mm 5 m/S 756 mmHg 97%
23:00 0°C° 0.6 mm 5 m/S 755 mmHg 97%

Morgen, 15 April, Donnerstag

Zeit Temperatur Niederschläge Wind Luftdruck Luftfeuchtigkeit
00:00 0°C° 0.6 mm 5 m/S 755 mmHg 97%
01:00 -1°C° 0.6 mm 6 m/S 755 mmHg 97%
02:00 0°C° 0.9 mm 5 m/S 755 mmHg 97%
03:00 0°C° 0.9 mm 5 m/S 755 mmHg 97%
04:00 0°C° 0.9 mm 5 m/S 754 mmHg 97%
05:00 0°C° 0.9 mm 4 m/S 754 mmHg 98%
06:00 0°C° 0.9 mm 4 m/S 754 mmHg 98%
07:00 -1°C° 0.9 mm 4 m/S 754 mmHg 98%
08:00 0°C° 0.6 mm 4 m/S 754 mmHg 98%
09:00 0°C° 0.6 mm 4 m/S 754 mmHg 98%
10:00 +1°C° 0.6 mm 3 m/S 754 mmHg 98%
11:00 +1°C° 0.2 mm 3 m/S 754 mmHg 98%
12:00 +2°C° 0.2 mm 3 m/S 754 mmHg 98%
13:00 +2°C° 0.2 mm 3 m/S 754 mmHg 98%
14:00 +2°C° 0.1 mm 3 m/S 754 mmHg 98%
15:00 +2°C° 0.1 mm 3 m/S 754 mmHg 98%
16:00 +4°C° 0.1 mm 2 m/S 754 mmHg 98%
17:00 +4°C° 0 mm 2 m/S 754 mmHg 98%
18:00 +4°C° 0 mm 2 m/S 754 mmHg 98%
19:00 +4°C° 0 mm 2 m/S 754 mmHg 98%
20:00 +4°C° 0.1 mm 2 m/S 754 mmHg 98%
21:00 +4°C° 0.1 mm 2 m/S 754 mmHg 98%
22:00 +4°C° 0.1 mm 2 m/S 754 mmHg 98%
23:00 +3°C° 0.2 mm 3 m/S 754 mmHg 98%

übermorgen, 16 April, Freitag

Zeit Temperatur Niederschläge Wind Luftdruck Luftfeuchtigkeit
00:00 +3°C° 0.2 mm 3 m/S 754 mmHg 97%
01:00 +3°C° 0.2 mm 3 m/S 753 mmHg 97%
02:00 +3°C° 0.7 mm 3 m/S 753 mmHg 96%
03:00 +3°C° 0.7 mm 3 m/S 753 mmHg 96%
04:00 +3°C° 0.7 mm 3 m/S 753 mmHg 96%
05:00 +3°C° 0.3 mm 3 m/S 753 mmHg 96%
06:00 +3°C° 0.3 mm 3 m/S 753 mmHg 96%
07:00 +3°C° 0.3 mm 3 m/S 753 mmHg 95%
08:00 +3°C° 0.1 mm 4 m/S 754 mmHg 95%
09:00 +3°C° 0.1 mm 4 m/S 754 mmHg 96%
10:00 +3°C° 0.1 mm 4 m/S 754 mmHg 96%
11:00 +3°C° 0.3 mm 4 m/S 754 mmHg 96%
12:00 +4°C° 0.3 mm 4 m/S 754 mmHg 96%
13:00 +4°C° 0.3 mm 4 m/S 754 mmHg 96%
14:00 +4°C° 0.1 mm 3 m/S 754 mmHg 96%
15:00 +4°C° 0.1 mm 3 m/S 754 mmHg 96%
16:00 +5°C° 0.1 mm 3 m/S 755 mmHg 96%
17:00 +5°C° 0 mm 3 m/S 755 mmHg 96%
18:00 +5°C° 0 mm 3 m/S 755 mmHg 96%
19:00 +5°C° 0 mm 3 m/S 755 mmHg 97%
20:00 +5°C° 0.1 mm 3 m/S 755 mmHg 97%
21:00 +5°C° 0.1 mm 3 m/S 755 mmHg 97%
22:00 +7°C° 0.1 mm 3 m/S 755 mmHg 97%
23:00 +7°C° 0 mm 3 m/S 755 mmHg 97%

17 April, Samstag

Zeit Temperatur Niederschläge Wind Luftdruck Luftfeuchtigkeit
00:00 +5°C° 0 mm 3 m/S 755 mmHg 97%
01:00 +5°C° 0 mm 3 m/S 755 mmHg 97%
02:00 +5°C° 0.5 mm 3 m/S 755 mmHg 97%
03:00 +7°C° 0.5 mm 3 m/S 755 mmHg 97%
04:00 +6°C° 0.5 mm 4 m/S 755 mmHg 97%
05:00 +7°C° 0 mm 3 m/S 755 mmHg 95%
06:00 +7°C° 0 mm 3 m/S 755 mmHg 94%
07:00 +7°C° 0 mm 3 m/S 755 mmHg 92%
08:00 +8°C° 0 mm 3 m/S 755 mmHg 90%
09:00 +8°C° 0 mm 3 m/S 755 mmHg 88%
10:00 +9°C° 0 mm 3 m/S 755 mmHg 86%
11:00 +9°C° 0.3 mm 3 m/S 755 mmHg 84%
12:00 +10°C° 0.3 mm 3 m/S 755 mmHg 82%
13:00 +10°C° 0.3 mm 3 m/S 755 mmHg 79%
14:00 +10°C° 0.2 mm 3 m/S 755 mmHg 80%
15:00 +10°C° 0.2 mm 3 m/S 755 mmHg 80%
16:00 +10°C° 0.2 mm 3 m/S 755 mmHg 81%
17:00 +9°C° 0 mm 3 m/S 756 mmHg 85%
18:00 +8°C° 0 mm 3 m/S 756 mmHg 88%
19:00 +7°C° 0 mm 2 m/S 756 mmHg 92%
20:00 +7°C° 0.1 mm 2 m/S 756 mmHg 93%
21:00 +7°C° 0.1 mm 2 m/S 756 mmHg 94%
22:00 +6°C° 0.1 mm 2 m/S 757 mmHg 95%
23:00 +6°C° 0 mm 2 m/S 757 mmHg 95%

18 April, Sonntag

Zeit Temperatur Niederschläge Wind Luftdruck Luftfeuchtigkeit
00:00 +5°C° 0 mm 2 m/S 757 mmHg 95%
01:00 +4°C° 0 mm 2 m/S 757 mmHg 95%
02:00 +4°C° 0 mm 2 m/S 757 mmHg 94%
03:00 +5°C° 0 mm 1 m/S 757 mmHg 93%
04:00 +5°C° 0 mm 1 m/S 757 mmHg 92%
05:00 +6°C° 0 mm 1 m/S 757 mmHg 89%
06:00 +7°C° 0 mm 1 m/S 757 mmHg 87%
07:00 +8°C° 0 mm 1 m/S 757 mmHg 85%
08:00 +9°C° 0 mm 1 m/S 757 mmHg 81%
09:00 +9°C° 0 mm 2 m/S 757 mmHg 77%
10:00 +10°C° 0 mm 2 m/S 757 mmHg 73%
11:00 +12°C° 0 mm 2 m/S 757 mmHg 68%
12:00 +13°C° 0 mm 2 m/S 757 mmHg 64%
13:00 +14°C° 0 mm 2 m/S 757 mmHg 59%
14:00 +14°C° 0 mm 2 m/S 756 mmHg 60%
15:00 +14°C° 0 mm 2 m/S 756 mmHg 61%
16:00 +14°C° 0 mm 2 m/S 756 mmHg 61%
17:00 +13°C° 0 mm 2 m/S 756 mmHg 66%
18:00 +12°C° 0 mm 2 m/S 756 mmHg 71%
19:00 +10°C° 0 mm 2 m/S 757 mmHg 75%
20:00 +10°C° 0 mm 2 m/S 757 mmHg 78%
21:00 +10°C° 0 mm 2 m/S 757 mmHg 81%
22:00 +9°C° 0 mm 2 m/S 757 mmHg 84%
23:00 +9°C° 0 mm 2 m/S 757 mmHg 86%

19 April, Montag

Zeit Temperatur Niederschläge Wind Luftdruck Luftfeuchtigkeit
00:00 +9°C° 0 mm 2 m/S 756 mmHg 89%
01:00 +9°C° 0 mm 2 m/S 756 mmHg 91%
02:00 +9°C° 0.1 mm 3 m/S 756 mmHg 92%
03:00 +8°C° 0.1 mm 3 m/S 756 mmHg 93%
04:00 +8°C° 0.1 mm 3 m/S 756 mmHg 93%
05:00 +8°C° 0 mm 3 m/S 756 mmHg 90%
06:00 +7°C° 0 mm 4 m/S 756 mmHg 86%
07:00 +8°C° 0 mm 4 m/S 756 mmHg 83%
08:00 +10°C° 0 mm 4 m/S 756 mmHg 78%
09:00 +10°C° 0 mm 5 m/S 756 mmHg 73%
10:00 +12°C° 0 mm 5 m/S 756 mmHg 68%
11:00 +11°C° 0.1 mm 6 m/S 756 mmHg 66%
12:00 +13°C° 0.1 mm 6 m/S 756 mmHg 65%
13:00 +13°C° 0.1 mm 6 m/S 756 mmHg 63%
14:00 +13°C° 0.1 mm 6 m/S 756 mmHg 65%
15:00 +12°C° 0.1 mm 5 m/S 756 mmHg 68%
16:00 +12°C° 0.1 mm 5 m/S 755 mmHg 70%
17:00 +11°C° 0 mm 4 m/S 755 mmHg 74%
18:00 +11°C° 0 mm 3 m/S 755 mmHg 78%
19:00 +10°C° 0 mm 3 m/S 755 mmHg 82%
20:00 +10°C° 0 mm 3 m/S 755 mmHg 80%
21:00 +10°C° 0 mm 4 m/S 755 mmHg 79%
22:00 +10°C° 0 mm 4 m/S 755 mmHg 78%
23:00 +10°C° 0 mm 4 m/S 755 mmHg 78%
Mehr zeigen

Wir brauchen deine Erlaubnis

Meteoprog und unser Service Anbieter werden persönliche Daten aufbewahren, so wie Cookies, Geräte Bezeichnung oder ähnliche Technologien von deinem Gerät und Prozess, so wie Persönliche Daten Inhalte und Werbungen, genauso wie social Media und den Verkehr zu analysieren.

  • Aufbewahrung und/oder Zugang zu deiner Geräte Informationen.

    Cookies, Geräte Bezeichnung oder andere Informationen, können aufbewahrt oder Zugang zu deinem Gerät erhalten, für den Grund, der oben angegeben wird.

  • Personalisierte Werbung und Inhalte, Messungen, Einblick in das Publikum und Produkt Entwicklung.

    Werbungen und Inhalte können personalisiert werden, basierend auf ein Profil. Mehr Daten können besser personalisierte Werbungen und Inhalte hinzufügen. Werbung und Inhalte können gezeigt und gemessen werden. Einblicke über das Publikum, welche die Werbung gesehen haben und den Inhalt, können abgeleitet werden. So wie Daten können genutzt werden, um es zu verbessern oder die Benutzer Erfahrung zu verbessern das System und die Software.

Wenn du “Ich stimme zu” klickst, erlaubst du uns, die Cookies zu benutzen die Geräte Bezeichnung, den Web oder ähnliche Technologien zu benutzen. Deine Settings, können in deinem Gerät bei deinem Browser geändert werden.

Für den bestimmten Zweck, berechtigten Interessen beruhen darauf, mehr als auf den Inhalt. Du kannst mehr darüber in unseren Privaten und Cookie Politik lesen.